Tracking 27422 objects as of 30-May-2023
HD Live streaming from Space Station
objects crossing your sky now

COSMOS 1636

Track COSMOS 1636 now!
10-day predictions
COSMOS 1636 is classified as:


NORAD ID: 15618
Int'l Code: 1985-023B
Perigee: 1,480.7 km
Apogee: 1,501.7 km
Inclination: 74.1 °
Period: 115.6 minutes
Semi major axis: 7862 km
RCS: 0.6956 m2 (medium)
Launch date: March 21, 1985
Source: Commonwealth of Independent States (former USSR) (CIS)
Launch site: PLESETSK MISSILE AND SPACE COMPLEX (PKMTR)
Your satellite tracking list
Your tracking list is empty




NASA's NSSDC Master Catalog

Two Line Element Set (TLE):
1 15618U 85023B   23150.55401806 -.00000005  00000-0  77604-4 0  9993
2 15618  74.0542 204.1711 0013329 281.5800 148.1764 12.45331779736237
Source of the keplerian elements: AFSPC